Location: Izdebno
(52.6670°N, 16.2170°E)
Time: 15:46:55
(UTC+01:00)

Vanguard 2 - Pass Details

Date: 04 February 2023
Orbit: 553 x 2927 km, 32.9° (Epoch: 24 March)

Event Time Altitude Azimuth Distance (km) Brightness Sun altitude
Rises 20:04:09 0° 199° (SSW) 5,132 11.8 -30.1°
Reaches altitude 10° 20:08:32 10° 183° (S) 4,536 11.3 -30.7°
Enters shadow 20:13:06 18° 162° (SSE) 4,272 11.0 -31.4°
Maximum altitude 20:17:01 20° 143° (SE) 4,365 - -32.0°
Drops below altitude 10° 20:27:17 10° 104° (ESE) 5,633 - -33.5°
Sets 20:33:40 0° 91° (E) 6,776 - -34.4°
